Regional Weather Roundup
Issued by NWS

Home | Current Version | Previous Version | Graphics & Text | Print | Product List | Glossary On
Versions: 1 2 3 4 5 6 7 8 9 10 11 12 13 14 15 16 17 18 19 20 21 22 23 24 25 26 27 28 29 30 31 32 33 34 35 36 37 38 39 40 41 42 43 44 45 46
000
ASUS43 KDMX 130307
RWRIA

WEATHER ROUNDUP FOR IOWA
NATIONAL WEATHER SERVICE DES MOINES IA
1000 PM CDT SAT JUL 12 2014

NOTE: "FAIR" INDICATES FEW OR NO CLOUDS BELOW 12,000 FEET WITH NO
SIGNIFICANT WEATHER AND/OR OBSTRUCTIONS TO VISIBILITY.

* - THESE STATIONS ARE NOT NWS STATIONS...THUS NOT UNDER NWS
QUALITY CONTROL.  THEY ALSO DO NOT REPORT WEATHER SUCH
AS PRECIPITATION OR FOG.

IAZ001>003-012>014-020>022-031>034-043>046-130400-
   NORTHWEST IOWA

CITY           SKY/WX    TMP DP  RH WIND       PRES   REMARKS
CARROLL *      CLEAR     66  64  94 NW3       30.01R
CHEROKEE *     CLEAR     70  68  94 CALM      30.02R
DENISON *      CLEAR     68  66  94 N3        30.01R
LE MARS *      PTCLDY    70  70 100 CALM      30.03R
ORANGE CITY *  CLEAR     72  66  83 NW3       30.04R
SHELDON *      CLEAR     70  68  94 N5        30.02R
SIOUX CITY     CLEAR     70  68  93 CALM      30.02R
SPENCER        CLEAR     70  66  87 NW5       30.02R
STORM LAKE *   CLEAR     68  68 100 W7        30.03R
$$

IAZ055>058-069>071-079>083-090>094-130400-
   SOUTHWEST IOWA

CITY           SKY/WX    TMP DP  RH WIND       PRES   REMARKS
ATLANTIC *     MOCLDY    70  68  94 CALM      30.01R
AUDUBON *      CLEAR     70  66  88 CALM      30.03R
CLARINDA *     CLOUDY    77  75  94 N7        29.98R
COUNCIL BLFS *   N/A     72  72 100 N8        30.01R
CRESTON *      CLOUDY    75  72  88 N13       30.00R
HARLAN  *      CLEAR     68  68 100 N6        30.05R
LAMONI         MOCLDY    76  70  82 N5        29.96R
RED OAK *      CLOUDY    75  72  88 NE10G17   30.00R
SHENANDOAH *   CLOUDY    77  73  88 N8        29.98R
$$

IAZ047>049-059>061-072>074-084-130400-
   CENTRAL IOWA

CITY           SKY/WX    TMP DP  RH WIND       PRES   REMARKS
AMES           CLEAR     68  67  96 NW6       29.98R
ANKENY *       PTCLDY    70  68  94 CALM      29.97R
CHARITON *     CLOUDY    75  73  94 NW9       29.97R
DES MOINES     MOCLDY    73  67  81 CALM      29.97R
GRINNELL*      MOCLDY    68  66  94 CALM      29.98R
KNOXVILLE *    CLOUDY    72  68  88 N10       29.96R
MARSHALLTOWN   CLEAR     66  65  96 NW6       29.97R
PELLA *        LGT RAIN  72  70  94 N7        29.97R
PERRY *          N/A     68  66  94 NW3       30.00R
$$

IAZ004>006-015-016-023>025-035-036-130400-
   NORTH CENTRAL IOWA

CITY           SKY/WX    TMP DP  RH WIND       PRES   REMARKS
ALGONA *       CLEAR     70  70 100 NW5       30.01R
CLARION *      CLEAR     66  66 100 W5        30.00R
ESTHERVILLE    CLEAR     69  66  90 N5        30.01R
FORT DODGE *     N/A     66  64  94 CALM      30.01R VSB 3/4
MASON CITY     PTCLDY    67  66  97 W5        30.01R
FOREST CITY *  PTCLDY    68  68 100 CALM      30.00R
IOWA FALLS *     N/A     66  64  94 W5        30.00R
$$

IAZ007>011-017>019-026>030-037>042-050>054-066-130400-
   NORTHEAST IOWA

CITY           SKY/WX    TMP DP  RH WIND       PRES   REMARKS
CEDAR RAPIDS   CLOUDY    68  66  93 N9        29.94R
CHARLES CITY * MOCLDY    66  64  94 W3        29.99R FOG
DECORAH *        N/A    N/A N/A N/A MISG        N/A
DUBUQUE        CLOUDY    67  67 100 N10       29.93F
MONTICELLO *   CLOUDY    68  68 100 VRB3      29.94R
OELWEIN *      PTCLDY    64  64 100 NW7       29.97R
WATERLOO       CLEAR     65  64  97 NW5       29.95R
$$

IAZ064-065-067-068-078-130400-
   EAST CENTRAL IOWA

CITY           SKY/WX    TMP DP  RH WIND       PRES   REMARKS
DAVENPORT        N/A     72  68  87 W13       29.92R
IOWA CITY      LGT RAIN  71  71 100 NW9       29.94R
MT. PLEASANT * RAIN      72  68  88 SW10      29.93R
MUSCATINE *    PTCLDY    73  72  94 NW6       29.92R
QUAD CITIES    LGT RAIN  73  68  84 SW14G24   29.87R
$$

IAZ062-063-075>077-085>089-095>099-130400-
   SOUTHEAST IOWA

CITY           SKY/WX    TMP DP  RH WIND       PRES   REMARKS
BURLINGTON     LGT RAIN  72  69  90 SW8       29.92F
FAIRFIELD *    CLOUDY    72  70  94 SW8       29.94R
FORT MADISON * LGT RAIN  73  70  88 W8        29.95R
KEOKUK *       PTCLDY    73  68  83 W5        29.94S
OSKALOOSA *    HVY RAIN  72  70  94 CALM      29.96R
CENTERVILLE *  PTCLDY    73  73 100 CALM      29.98R
OTTUMWA        LGT RAIN  72  70  93 CALM      29.95R
WASHINGTON *   CLOUDY    73  70  88 W8G16     29.94R
$$

ABBREVIATIONS USED IN REMARKS
   TC - TEMPERATURES IN CELSIUS
  WCI - WIND CHILL INDEX
   HX - HEAT INDEX
  VSB - VISIBILITY
$$



USA.gov is the U.S. government's official web portal to all federal, state and local government web resources and services.